TimeCDT,TemperatureF,Dew PointF,Humidity,Sea Level PressureIn,VisibilityMPH,Wind Direction,Wind SpeedMPH,Gust SpeedMPH,PrecipitationIn,Events,Conditions,WindDirDegrees,DateUTC
12:15 AM,77.0,59.0,54,30.05,10.0,SSE,13.8,20.7,N/A,,Clear,150,2013-07-12 05:15:00
12:35 AM,76.3,59.4,56,30.06,10.0,SSE,12.7,-,N/A,,Clear,150,2013-07-12 05:35:00
12:55 AM,76.1,59.5,56,30.05,10.0,SSE,16.1,23.0,N/A,,Clear,150,2013-07-12 05:55:00
1:15 AM,75.0,59.4,58,30.05,10.0,SSE,10.4,-,N/A,,Clear,160,2013-07-12 06:15:00
1:35 AM,74.5,59.4,59,30.04,10.0,SSE,11.5,16.1,N/A,,Clear,160,2013-07-12 06:35:00
1:55 AM,73.9,59.4,60,30.04,10.0,SSE,11.5,-,N/A,,Clear,150,2013-07-12 06:55:00
2:15 AM,73.2,59.7,63,30.04,10.0,SE,9.2,-,N/A,,Clear,140,2013-07-12 07:15:00
2:35 AM,72.5,59.9,64,30.04,10.0,SE,10.4,-,N/A,,Clear,140,2013-07-12 07:35:00
2:55 AM,72.0,59.9,66,30.04,10.0,SSE,10.4,-,N/A,,Clear,150,2013-07-12 07:55:00
3:15 AM,71.6,59.5,66,30.04,10.0,SSE,8.1,-,N/A,,Clear,160,2013-07-12 08:15:00
3:35 AM,70.2,59.4,69,30.03,10.0,SSE,8.1,-,N/A,,Clear,150,2013-07-12 08:35:00
3:55 AM,70.2,59.0,68,30.03,10.0,SSE,9.2,-,N/A,,Clear,160,2013-07-12 08:55:00
4:15 AM,70.5,58.5,66,30.03,10.0,South,9.2,-,N/A,,Clear,170,2013-07-12 09:15:00
4:35 AM,71.6,58.3,63,30.03,10.0,SSE,10.4,-,N/A,,Clear,160,2013-07-12 09:35:00
4:55 AM,72.1,58.1,61,30.03,10.0,SSE,10.4,-,N/A,,Clear,160,2013-07-12 09:55:00
5:15 AM,72.7,57.7,59,30.02,10.0,South,11.5,-,N/A,,Clear,170,2013-07-12 10:15:00
5:35 AM,73.4,57.7,58,30.02,10.0,South,11.5,-,N/A,,Clear,180,2013-07-12 10:35:00
5:55 AM,72.7,57.7,59,30.03,10.0,South,10.4,-,N/A,,Clear,180,2013-07-12 10:55:00
6:15 AM,71.6,57.6,61,30.03,10.0,South,9.2,-,N/A,,Clear,180,2013-07-12 11:15:00
6:35 AM,70.5,57.6,63,30.03,10.0,South,6.9,-,N/A,,Clear,180,2013-07-12 11:35:00
6:55 AM,68.2,58.3,71,30.04,10.0,SE,8.1,-,N/A,,Clear,140,2013-07-12 11:55:00
7:15 AM,69.6,58.1,67,30.05,10.0,SSE,8.1,-,N/A,,Clear,150,2013-07-12 12:15:00
7:35 AM,72.5,58.1,60,30.05,10.0,South,10.4,-,N/A,,Clear,190,2013-07-12 12:35:00
7:55 AM,72.7,58.1,60,30.05,10.0,SSW,9.2,-,N/A,,Clear,210,2013-07-12 12:55:00
8:15 AM,77.2,58.3,52,30.05,10.0,SSW,11.5,-,N/A,,Clear,200,2013-07-12 13:15:00
8:35 AM,76.5,58.3,53,30.05,10.0,South,9.2,-,N/A,,Clear,190,2013-07-12 13:35:00
8:55 AM,79.9,58.1,47,30.05,10.0,South,11.5,-,N/A,,Clear,180,2013-07-12 13:55:00
9:15 AM,83.3,57.2,41,30.06,10.0,SSW,15.0,-,N/A,,Clear,200,2013-07-12 14:15:00
9:35 AM,83.5,56.7,40,30.06,10.0,SSW,13.8,-,N/A,,Clear,210,2013-07-12 14:35:00
9:55 AM,86.0,56.5,36,30.06,10.0,SSW,17.3,-,N/A,,Clear,210,2013-07-12 14:55:00
10:15 AM,87.3,56.3,35,30.06,10.0,SSW,15.0,24.2,N/A,,Clear,210,2013-07-12 15:15:00
10:35 AM,88.7,55.8,33,30.05,10.0,SSW,17.3,23.0,N/A,,Clear,210,2013-07-12 15:35:00
10:55 AM,89.4,55.8,32,30.06,10.0,South,13.8,20.7,N/A,,Clear,190,2013-07-12 15:55:00
11:15 AM,90.7,55.6,30,30.06,10.0,South,16.1,24.2,N/A,,Clear,190,2013-07-12 16:15:00
11:35 AM,91.6,54.9,29,30.05,10.0,South,18.4,25.3,N/A,,Clear,190,2013-07-12 16:35:00
11:55 AM,92.8,55.0,28,30.05,10.0,SSW,17.3,-,N/A,,Clear,210,2013-07-12 16:55:00
12:15 PM,93.4,54.9,27,30.05,10.0,SSW,18.4,25.3,N/A,,Clear,200,2013-07-12 17:15:00
12:35 PM,94.1,54.0,26,30.05,10.0,SSW,13.8,23.0,N/A,,Clear,210,2013-07-12 17:35:00
12:55 PM,94.1,53.8,26,30.04,10.0,SSW,16.1,24.2,N/A,,Clear,210,2013-07-12 17:55:00
1:15 PM,95.4,54.1,25,30.03,10.0,South,13.8,21.9,N/A,,Clear,180,2013-07-12 18:15:00
1:35 PM,95.5,53.2,24,30.02,10.0,South,17.3,23.0,N/A,,Clear,190,2013-07-12 18:35:00
1:55 PM,97.3,52.9,22,30.02,10.0,South,9.2,31.1,N/A,,Clear,170,2013-07-12 18:55:00
2:15 PM,96.8,52.5,22,30.01,10.0,South,18.4,26.5,N/A,,Clear,190,2013-07-12 19:15:00
2:35 PM,98.4,52.2,21,30.00,10.0,South,20.7,26.5,N/A,,Clear,190,2013-07-12 19:35:00
2:55 PM,96.4,52.7,23,30.00,10.0,SSW,13.8,18.4,N/A,,Clear,210,2013-07-12 19:55:00
3:15 PM,97.9,52.2,21,29.99,10.0,South,10.4,27.6,N/A,,Clear,190,2013-07-12 20:15:00
3:35 PM,96.4,52.7,23,30.00,10.0,South,15.0,20.7,N/A,,Clear,190,2013-07-12 20:35:00
3:55 PM,98.6,52.5,21,29.99,10.0,South,16.1,24.2,N/A,,Clear,170,2013-07-12 20:55:00
4:15 PM,95.5,52.3,23,29.99,10.0,South,15.0,25.3,N/A,,Clear,190,2013-07-12 21:15:00
4:35 PM,95.0,52.0,23,29.98,10.0,South,12.7,26.5,N/A,,Clear,170,2013-07-12 21:35:00
4:55 PM,97.0,51.6,22,29.98,10.0,South,17.3,27.6,N/A,,Clear,180,2013-07-12 21:55:00
5:15 PM,94.6,52.2,24,29.98,10.0,South,17.3,24.2,N/A,,Clear,170,2013-07-12 22:15:00
5:35 PM,96.6,51.8,22,29.98,10.0,South,12.7,25.3,N/A,,Clear,170,2013-07-12 22:35:00
5:55 PM,96.1,53.2,24,29.97,10.0,South,17.3,-,N/A,,Clear,180,2013-07-12 22:55:00
6:15 PM,94.3,51.8,24,29.97,10.0,SSE,18.4,23.0,N/A,,Clear,160,2013-07-12 23:15:00
6:35 PM,95.9,51.8,22,29.96,10.0,SSE,17.3,27.6,N/A,,Clear,160,2013-07-12 23:35:00
6:55 PM,95.2,51.8,23,29.96,10.0,South,17.3,24.2,N/A,,Clear,170,2013-07-12 23:55:00
7:15 PM,94.5,53.8,25,29.97,10.0,SSE,16.1,31.1,N/A,,Clear,160,2013-07-13 00:15:00
7:35 PM,93.7,53.4,25,29.97,10.0,SSE,16.1,29.9,N/A,,Clear,160,2013-07-13 00:35:00
7:55 PM,92.3,53.2,26,29.98,10.0,SSE,16.1,25.3,N/A,,Clear,150,2013-07-13 00:55:00
8:15 PM,91.6,52.3,26,29.98,10.0,SSE,20.7,24.2,N/A,,Clear,160,2013-07-13 01:15:00
8:35 PM,90.9,52.0,26,29.98,10.0,SSE,17.3,21.9,N/A,,Clear,160,2013-07-13 01:35:00
8:55 PM,89.4,52.9,29,30.00,10.0,SSE,16.1,-,N/A,,Clear,160,2013-07-13 01:55:00
9:15 PM,88.5,53.2,30,30.00,10.0,SSE,19.6,24.2,N/A,,Clear,160,2013-07-13 02:15:00
9:35 PM,86.9,54.0,32,30.00,10.0,SSE,15.0,-,N/A,,Clear,150,2013-07-13 02:35:00
9:55 PM,84.7,54.1,35,30.01,10.0,SSE,11.5,-,N/A,,Clear,150,2013-07-13 02:55:00
10:15 PM,84.2,53.8,35,30.02,10.0,SSE,13.8,-,N/A,,Clear,150,2013-07-13 03:15:00
10:35 PM,83.3,53.2,35,30.02,10.0,SSE,10.4,-,N/A,,Clear,160,2013-07-13 03:35:00
10:55 PM,83.5,53.2,35,30.03,10.0,SSE,12.7,-,N/A,,Clear,160,2013-07-13 03:55:00
11:15 PM,82.8,53.2,36,30.03,10.0,SSE,12.7,-,N/A,,Clear,160,2013-07-13 04:15:00
11:35 PM,82.6,53.6,37,30.04,10.0,SSE,12.7,-,N/A,,Clear,160,2013-07-13 04:35:00
11:55 PM,82.4,53.6,37,30.05,10.0,SSE,12.7,-,N/A,,Clear,160,2013-07-13 04:55:00